^^
Station Historical Data
 
Daily Summary for September 18, 2014 Units:  English    Metric   Both
« Previous Day
Next Day »
Daily Weekly Monthly Yearly Custom
  Current: High: Low: Average:
Temperature: 69.9 °F 69.9 °F 48.5 °F 54.2 °F
Dew Point: 46.4 °F 47.7 °F 42.6 °F 45.4 °F
Humidity: 43% 83% 43% 73%
Wind Speed: 0.0mph 1.2mph 0.0mph 1.2mph
Wind Gust: 0.0mph 1.2mph - -
WindCalm - - SSW
Pressure: 29.72 in 29.78 in 29.65 in -
Precipitation: 0.00 in      
Historical Graphs
 
 
Tabular Data for September 18, 2014
Time Temperature Dew Point Pressure Wind Wind Speed Wind Gust Humidity Rainfall Rate (Hourly)
00:03 57.3 °F 46.4 °F 29.68 in Calm     67% 0.00 in
00:08 57.0 °F 46.1 °F 29.68 in Calm     67% 0.00 in
00:13 56.9 °F 46.4 °F 29.68 in Calm     68% 0.00 in
00:18 56.5 °F 46.4 °F 29.68 in Calm     69% 0.00 in
00:23 56.0 °F 46.7 °F 29.68 in Calm     71% 0.00 in
00:28 55.7 °F 46.1 °F 29.67 in Calm     70% 0.00 in
00:33 55.7 °F 46.4 °F 29.67 in Calm     71% 0.00 in
00:38 55.4 °F 46.5 °F 29.68 in Calm     72% 0.00 in
00:43 55.3 °F 46.4 °F 29.68 in Calm     72% 0.00 in
00:48 55.0 °F 46.9 °F 29.68 in Calm     74% 0.00 in
00:53 54.8 °F 47.4 °F 29.68 in Calm     76% 0.00 in
00:58 54.7 °F 47.3 °F 29.68 in Calm     76% 0.00 in
01:03 54.7 °F 47.6 °F 29.67 in Calm     77% 0.00 in
01:08 54.5 °F 47.4 °F 29.67 in Calm     77% 0.00 in
01:13 54.4 °F 47.3 °F 29.67 in Calm     77% 0.00 in
01:18 54.2 °F 47.5 °F 29.67 in Calm     78% 0.00 in
01:23 54.1 °F 47.4 °F 29.67 in Calm     78% 0.00 in
01:28 54.1 °F 47.7 °F 29.67 in Calm     79% 0.00 in
01:33 53.8 °F 47.4 °F 29.67 in Calm     79% 0.00 in
01:38 53.6 °F 47.2 °F 29.67 in Calm     79% 0.00 in
01:43 53.3 °F 47.3 °F 29.68 in Calm     80% 0.00 in
01:48 53.2 °F 47.2 °F 29.68 in Calm     80% 0.00 in
01:53 52.8 °F 46.8 °F 29.68 in Calm     80% 0.00 in
01:58 52.6 °F 46.9 °F 29.68 in Calm     81% 0.00 in
02:03 52.3 °F 46.6 °F 29.67 in Calm     81% 0.00 in
02:08 52.3 °F 47.0 °F 29.67 in Calm     82% 0.00 in
02:13 52.6 °F 47.6 °F 29.66 in Calm     83% 0.00 in
02:18 52.6 °F 47.3 °F 29.66 in Calm     82% 0.00 in
02:23 52.5 °F 47.2 °F 29.66 in Calm     82% 0.00 in
02:28 52.2 °F 46.9 °F 29.67 in Calm     82% 0.00 in
02:33 52.0 °F 46.7 °F 29.67 in Calm     82% 0.00 in
02:38 51.9 °F 46.6 °F 29.67 in Calm     82% 0.00 in
02:43 51.9 °F 46.6 °F 29.67 in Calm     82% 0.00 in
02:48 51.9 °F 46.6 °F 29.67 in Calm     82% 0.00 in
02:53 52.0 °F 46.7 °F 29.67 in Calm     82% 0.00 in
02:58 52.2 °F 46.5 °F 29.67 in Calm     81% 0.00 in
03:03 52.3 °F 46.3 °F 29.66 in Calm     80% 0.00 in
03:08 52.2 °F 46.2 °F 29.66 in Calm     80% 0.00 in
03:13 52.0 °F 45.7 °F 29.66 in Calm     79% 0.00 in
03:18 51.9 °F 45.6 °F 29.66 in Calm     79% 0.00 in
03:23 51.7 °F 45.4 °F 29.65 in Calm     79% 0.00 in
03:28 51.4 °F 44.8 °F 29.65 in Calm     78% 0.00 in
03:33 51.3 °F 44.7 °F 29.66 in Calm     78% 0.00 in
03:38 51.1 °F 44.5 °F 29.66 in Calm     78% 0.00 in
03:43 51.0 °F 44.4 °F 29.66 in Calm     78% 0.00 in
03:48 51.0 °F 44.4 °F 29.66 in Calm     78% 0.00 in
03:53 51.1 °F 44.1 °F 29.66 in Calm     77% 0.00 in
03:58 51.4 °F 44.1 °F 29.66 in Calm     76% 0.00 in
04:03 51.6 °F 44.3 °F 29.70 in Calm     76% 0.00 in
04:08 51.6 °F 44.3 °F 29.70 in Calm     76% 0.00 in
04:13 51.4 °F 44.1 °F 29.70 in Calm     76% 0.00 in
04:18 51.3 °F 44.3 °F 29.70 in Calm     77% 0.00 in
04:23 51.3 °F 44.7 °F 29.70 in Calm     78% 0.00 in
04:25 51.3 °F 44.7 °F 29.70 in Calm     78% 0.00 in
04:30 51.6 °F 44.6 °F 29.70 in Calm     77% 0.00 in
04:35 51.9 °F 44.6 °F 29.70 in Calm     76% 0.00 in
04:40 51.7 °F 44.0 °F 29.70 in Calm     75% 0.00 in
04:45 52.0 °F 44.3 °F 29.70 in Calm     75% 0.00 in
04:50 52.0 °F 44.3 °F 29.69 in Calm     75% 0.00 in
04:53 52.0 °F 44.0 °F 29.69 in Calm     74% 0.00 in
04:58 51.7 °F 43.7 °F 29.70 in Calm     74% 0.00 in
05:03 51.6 °F 43.9 °F 29.71 in Calm     75% 0.00 in
05:08 51.3 °F 43.6 °F 29.72 in Calm     75% 0.00 in
05:13 51.0 °F 43.7 °F 29.72 in Calm     76% 0.00 in
05:18 50.7 °F 43.4 °F 29.72 in Calm     76% 0.00 in
05:23 50.5 °F 43.2 °F 29.72 in Calm     76% 0.00 in
05:28 50.4 °F 43.5 °F 29.72 in Calm     77% 0.00 in
05:33 50.2 °F 43.3 °F 29.72 in Calm     77% 0.00 in
05:38 50.1 °F 43.2 °F 29.72 in Calm     77% 0.00 in
05:43 49.9 °F 43.0 °F 29.72 in Calm     77% 0.00 in
05:48 49.9 °F 43.3 °F 29.72 in Calm     78% 0.00 in
05:53 49.8 °F 43.2 °F 29.72 in Calm     78% 0.00 in
05:58 49.6 °F 43.0 °F 29.72 in Calm     78% 0.00 in
06:03 49.6 °F 43.0 °F 29.74 in Calm     78% 0.00 in
06:08 49.6 °F 43.4 °F 29.74 in Calm     79% 0.00 in
06:13 49.6 °F 43.4 °F 29.74 in Calm     79% 0.00 in
06:18 49.6 °F 43.0 °F 29.74 in Calm     78% 0.00 in
06:23 49.5 °F 42.9 °F 29.74 in Calm     78% 0.00 in
06:28 49.4 °F 42.8 °F 29.74 in Calm     78% 0.00 in
06:33 49.2 °F 42.6 °F 29.74 in Calm     78% 0.00 in
06:38 49.1 °F 42.9 °F 29.74 in Calm     79% 0.00 in
06:43 48.9 °F 43.0 °F 29.74 in Calm     80% 0.00 in
06:48 48.6 °F 42.7 °F 29.74 in Calm     80% 0.00 in
06:53 48.5 °F 42.6 °F 29.74 in Calm     80% 0.00 in
06:58 48.5 °F 42.9 °F 29.75 in Calm     81% 0.00 in
07:03 48.6 °F 43.0 °F 29.78 in Calm     81% 0.00 in
07:08 48.9 °F 43.3 °F 29.78 in Calm     81% 0.00 in
07:13 49.8 °F 44.2 °F 29.78 in Calm     81% 0.00 in
07:14 50.1 °F 44.5 °F 29.78 in Calm     81% 0.00 in
07:19 50.8 °F 44.9 °F 29.77 in Calm     80% 0.00 in
07:24 51.7 °F 46.1 °F 29.77 in Calm     81% 0.00 in
07:29 53.2 °F 46.9 °F 29.77 in Calm     79% 0.00 in
07:34 54.2 °F 46.1 °F 29.77 in Calm     74% 0.00 in
07:39 55.0 °F 45.8 °F 29.76 in Calm     71% 0.00 in
07:44 55.6 °F 45.2 °F 29.76 in Calm     68% 0.00 in
07:49 56.2 °F 45.8 °F 29.76 in Calm     68% 0.00 in
07:54 57.2 °F 45.9 °F 29.75 in Calm     66% 0.00 in
07:59 58.0 °F 45.5 °F 29.75 in Calm     63% 0.00 in
08:04 58.3 °F 46.2 °F 29.77 in Calm     64% 0.00 in
08:09 58.6 °F 46.5 °F 29.77 in Calm     64% 0.00 in
08:14 59.0 °F 46.4 °F 29.76 in Calm     63% 0.00 in
08:19 59.9 °F 46.8 °F 29.77 in Calm     62% 0.00 in
08:24 61.0 °F 46.6 °F 29.76 in Calm     59% 0.00 in
08:29 61.8 °F 46.4 °F 29.75 in Calm     57% 0.00 in
08:34 62.3 °F 44.9 °F 29.75 in Calm     53% 0.00 in
08:39 63.2 °F 44.8 °F 29.74 in Calm     51% 0.00 in
08:44 63.5 °F 44.5 °F 29.75 in Calm     50% 0.00 in
08:49 64.2 °F 45.7 °F 29.74 in Calm     51% 0.00 in
08:54 65.0 °F 45.9 °F 29.74 in Calm     50% 0.00 in
08:59 66.1 °F 47.4 °F 29.74 in Calm     51% 0.00 in
09:04 66.6 °F 46.8 °F 29.74 in Calm     49% 0.00 in
09:09 66.3 °F 46.0 °F 29.74 in SSW 1.2 mph 1.2 mph 48% 0.00 in
09:14 66.4 °F 46.7 °F 29.74 in SSW 1.2 mph 1.2 mph 49% 0.00 in
09:19 67.1 °F 45.6 °F 29.74 in Calm     46% 0.00 in
09:24 67.8 °F 46.3 °F 29.73 in Calm     46% 0.00 in
09:29 68.6 °F 47.0 °F 29.73 in Calm     46% 0.00 in
09:34 69.4 °F 47.7 °F 29.72 in Calm     46% 0.00 in
09:39 69.9 °F 46.4 °F 29.72 in Calm     43% 0.00 in
Windsor CO Weather
Compliments of Weather Underground